Theta_e
320 320 320 315 311 304 302 301 301 301 301 301 302 302 304 306 307 310 310 311 310 309 308 309 311 312 312 312 311 311 308 308 309 307 309 306 307 308 308 309 309 310 310 309 310
319 320 319 319 316 313 306 302 301 301 300 300 301 302 303 305 307 308 311 311 309 309 308 309 311 312 312 311 311 308 307 308 305 305 307 306 306 308 309 308 309 310 310 310 310
318 319 318 318 319 319 317 314 306 301 301 301 300 301 303 305 308 309 308 311 309 309 309 310 311 311 311 310 309 307 307 306 307 307 307 306 306 307 307 306 308 308 309 309 310
317 319 320 318 318 319 320 320 319 305 301 301 300 301 303 305 307 312 311 310 308 308 309 310 311 311 308 308 309 308 308 307 308 309 307 306 308 308 308 308 309 309 309 310 310
316 318 318 318 318 318 319 319 320 319 302 301 301 301 303 306 307 312 311 309 308 308 309 310 311 310 308 307 309 308 308 308 308 309 308 308 308 308 308 309 310 310 310 310 309
313 316 316 317 316 317 317 318 319 320 315 302 301 301 302 303 308 309 311 310 308 308 308 310 310 311 309 308 307 308 309 308 309 309 309 308 307 308 309 309 309 309 309 309 309
309 313 315 315 315 316 316 317 317 320 320 318 303 301 303 302 306 309 310 309 309 308 308 309 310 311 310 308 309 309 308 307 308 308 308 309 306 306 308 308 309 309 309 309 309
307 310 312 313 314 315 316 316 316 317 320 320 317 306 305 305 304 309 309 309 309 308 308 309 310 311 310 309 308 308 306 307 306 307 308 306 306 303 307 307 308 308 309 309 308
304 305 311 312 313 313 314 315 316 316 318 319 318 309 307 305 305 308 308 309 309 309 309 309 311 309 309 306 305 304 306 306 306 307 308 304 305 303 307 307 307 308 308 308 308
303 304 304 310 312 312 312 314 315 316 317 318 316 313 314 308 306 308 309 309 309 310 310 310 310 306 304 305 309 306 308 306 307 307 308 307 307 306 307 307 307 308 308 308 308
301 303 304 306 310 312 312 312 312 314 313 317 311 312 306 307 307 308 309 309 309 310 309 308 307 307 306 305 304 304 306 308 308 307 309 308 308 308 307 307 306 308 309 309 309
299 302 303 303 304 309 311 313 313 311 313 315 315 313 305 307 307 308 310 309 309 307 306 307 307 306 305 305 307 306 307 307 306 307 307 303 306 306 304 304 306 307 308 309 309
299 300 302 302 303 307 309 311 312 313 311 314 315 316 315 309 308 307 310 310 307 307 306 306 307 304 306 306 307 307 308 306 307 306 305 304 305 304 303 303 304 305 307 308 309
298 298 301 301 301 305 307 309 312 313 306 309 309 311 310 308 306 306 309 310 309 307 305 306 305 306 307 307 306 308 305 305 306 307 306 302 308 304 304 301 302 305 305 306 307
297 298 300 300 304 307 308 310 313 311 296 302 305 306 305 308 308 307 310 309 308 307 306 307 305 307 308 307 306 306 304 305 306 305 305 304 305 304 301 304 304 301 306 306 307
297 296 298 300 302 306 308 311 310 307 306 307 303 305 305 306 307 308 309 309 308 308 307 306 306 305 307 305 306 303 305 304 302 303 305 303 303 304 304 305 305 303 304 308 306
298 297 298 299 301 304 309 307 309 308 301 299 302 304 305 305 307 308 308 308 307 309 309 308 307 305 306 307 306 305 305 308 307 306 308 301 302 305 303 301 304 305 304 307 307
298 297 297 298 301 303 305 307 308 297 298 302 303 303 305 305 306 308 309 309 308 307 304 308 308 306 304 307 308 306 304 308 309 306 306 301 305 308 303 303 302 304 305 306 306
296 297 296 296 299 301 302 309 306 297 302 304 303 303 304 305 306 307 307 308 309 306 313 309 310 305 304 304 306 308 308 304 305 295 305 305 304 304 302 301 303 300 304 306 306
294 295 295 295 297 299 300 306 301 300 302 303 306 302 301 304 306 305 305 306 308 307 308 310 312 304 304 304 304 305 304 307 304 305 308 306 305 309 308 305 300 300 301 305 307
294 294 294 294 297 300 301 302 299 303 303 304 305 300 303 302 303 305 305 305 307 308 308 309 310 306 305 306 307 306 305 304 304 305 309 309 309 303 305 305 303 300 303 305 307
294 289 295 296 299 300 300 296 302 303 303 304 303 303 303 302 303 304 305 304 307 308 310 309 310 309 308 303 301 303 305 304 308 306 303 305 308 304 302 303 301 300 304 304 307
294 294 294 297 296 297 293 300 300 303 304 304 304 304 302 303 304 304 303 304 307 308 309 309 310 310 311 309 303 306 304 303 302 303 305 308 310 302 302 302 302 301 302 304 305
293 291 293 295 296 294 296 296 298 299 302 303 303 304 303 303 299 301 304 302 304 307 309 309 308 311 313 309 309 309 306 304 305 307 307 306 307 308 306 304 301 303 303 304 304
292 291 291 292 290 293 296 296 294 297 301 302 303 304 304 305 303 301 302 303 304 309 308 308 309 309 310 307 307 306 308 308 307 307 308 308 308 309 309 305 305 306 305 304 304
293 291 292 292 292 292 294 294 296 297 299 299 303 301 304 306 306 303 303 303 305 306 309 307 311 306 309 309 309 311 309 307 308 307 308 306 307 305 305 307 303 305 305 305 306
293 293 293 291 289 293 290 293 296 297 297 298 300 300 302 303 304 305 305 306 306 307 307 307 306 307 310 300 307 308 307 310 311 306 307 308 309 309 307 305 307 306 305 308 307
Wind_Speed
8 7 9 8 9 8 7 7 7 7 5 4 4 4 5 6 5 7 7 5 6 6 6 8 10 11 9 6 5 5 4 2 4 7 3 7 5 6 4 5 8 9 10 7 7
12 9 9 9 6 7 8 8 7 7 6 6 4 4 4 5 7 9 7 7 6 7 9 11 13 11 6 4 4 4 4 7 4 5 4 7 7 7 4 6 8 15 18 14 12
18 13 12 10 10 6 7 8 9 8 7 7 6 5 4 3 5 6 10 8 6 8 10 11 12 9 4 4 3 3 5 3 3 4 4 6 4 6 6 6 15 13 11 14 14
14 13 15 12 11 11 7 8 10 10 8 8 6 6 4 3 4 5 6 8 7 10 12 14 12 7 4 4 3 2 2 3 3 3 5 5 3 4 16 8 4 7 11 10 11
16 16 17 15 13 12 11 9 10 10 9 7 8 6 4 4 5 5 5 5 7 10 14 13 14 7 5 4 4 2 2 3 3 4 4 4 6 8 16 20 21 15 13 13 12
15 19 19 17 17 15 13 13 12 10 9 9 6 7 4 3 5 7 6 5 7 9 12 13 9 9 8 3 3 2 2 2 3 4 3 3 3 2 6 7 24 20 18 15 14
20 19 18 19 19 17 16 13 13 13 11 9 9 8 7 8 6 7 7 6 7 9 10 10 9 8 12 5 4 4 2 3 5 5 3 3 7 12 24 13 11 21 19 16 15
22 23 19 19 19 19 17 15 14 14 12 10 10 9 5 6 7 8 7 7 8 9 9 10 8 10 4 13 5 3 3 1 2 6 2 3 9 4 4 18 20 18 19 17 16
15 25 24 21 19 14 16 17 14 14 14 12 9 6 5 5 8 9 10 7 8 10 9 12 10 5 6 5 4 5 3 4 4 8 2 4 8 3 3 8 18 19 19 19 18
11 14 24 25 20 17 16 14 15 14 15 12 12 5 9 5 6 9 10 11 6 12 10 6 4 4 3 3 5 6 4 4 5 3 2 3 18 13 19 9 17 19 21 21 21
13 11 11 19 20 16 15 11 9 8 10 9 4 4 2 6 7 9 12 11 13 7 5 2 3 7 10 6 2 6 3 3 3 2 3 7 13 18 17 17 24 32 29 27 25
15 12 11 12 14 19 16 11 8 3 7 13 18 16 10 9 5 9 15 8 6 4 5 3 6 5 3 6 4 3 3 4 2 3 3 4 15 18 10 12 26 33 33 35 28
14 15 11 12 12 14 17 17 12 3 4 9 19 19 21 19 9 14 18 8 3 5 5 6 3 5 6 4 5 3 5 4 4 1 2 6 9 7 2 8 18 25 29 30 30
11 15 12 9 6 14 16 19 15 4 1 6 7 8 15 13 6 12 21 7 2 9 7 5 1 5 4 4 5 3 6 4 3 2 3 2 6 7 5 8 7 18 27 30 27
7 11 13 10 7 13 11 15 12 6 2 3 3 4 12 12 11 5 19 6 8 6 6 6 7 5 4 5 8 4 4 6 2 3 2 1 1 8 3 8 11 9 24 27 27
8 9 14 13 13 13 13 17 12 4 9 2 3 3 5 1 3 5 6 5 5 4 3 1 2 4 4 3 1 8 5 5 4 2 1 5 6 5 5 7 4 2 18 22 25
8 9 10 12 11 16 11 18 3 5 3 4 4 4 2 3 3 3 5 4 5 4 3 1 4 2 5 6 4 2 4 1 2 1 5 2 3 9 8 7 5 4 12 20 25
9 11 12 14 15 9 17 4 6 4 7 1 4 5 5 5 2 3 6 6 3 4 3 6 5 6 5 6 7 7 4 5 7 5 3 2 7 7 6 5 13 3 7 20 28
7 8 10 11 17 14 11 11 9 6 7 9 3 5 3 3 4 4 6 5 9 7 8 5 5 2 5 4 5 6 7 2 5 2 3 4 7 11 5 7 4 9 11 25 32
6 7 11 8 14 12 3 14 6 4 4 4 11 5 8 8 6 7 9 6 8 12 2 4 2 1 1 0 3 3 2 2 2 2 4 4 5 6 6 5 8 8 17 27 33
1 1 2 9 14 8 4 6 4 5 4 6 9 5 6 8 7 6 7 4 8 14 8 5 2 1 3 5 6 2 2 2 2 4 5 2 6 7 6 5 8 10 25 30 37
3 1 1 11 6 4 6 5 3 3 4 2 3 3 8 9 7 7 12 5 15 18 11 7 2 4 5 1 4 3 3 4 3 5 3 1 6 2 4 2 3 10 21 25 34
4 5 6 11 4 6 2 4 3 3 0 3 3 4 3 9 4 7 7 1 16 13 17 11 4 3 2 1 1 4 5 4 2 1 6 5 5 2 1 4 5 3 12 21 29
5 1 3 7 7 2 1 3 3 6 8 1 4 3 2 4 2 5 5 3 3 8 16 17 4 6 5 4 4 6 8 9 8 4 5 10 7 7 3 6 6 3 6 15 24
9 4 3 2 4 5 2 2 0 3 2 6 4 8 4 4 3 4 2 2 4 4 8 5 6 4 5 5 5 4 4 13 16 21 17 7 18 17 19 2 3 4 5 13 22
9 5 4 2 2 1 6 4 12 2 2 4 7 6 6 6 6 5 6 3 5 2 6 4 1 4 3 7 8 11 11 12 17 20 21 21 31 7 10 24 16 8 10 16 24
14 12 5 6 3 3 3 3 3 5 7 16 6 6 10 18 13 13 12 11 10 9 10 6 5 3 3 1 5 7 19 23 22 10 11 22 23 15 16 12 21 22 20 23 25
Wind_Direction
312 326 339 352 4 2 348 342 329 325 322 319 307 292 283 279 240 198 203 209 197 181 179 170 165 158 153 146 135 134 70 198 226 162 227 172 181 185 203 211 205 216 233 242 266
280 299 317 328 343 1 5 357 341 325 324 322 316 301 283 280 264 225 200 188 207 187 178 175 167 161 143 147 147 110 131 217 194 186 197 188 191 194 180 217 236 239 242 250 261
266 277 289 297 314 329 349 356 357 340 326 321 319 310 290 277 268 242 209 193 193 191 173 174 167 162 132 150 175 154 195 181 202 206 188 186 216 203 187 236 227 228 247 243 247
262 253 266 271 289 309 313 338 344 353 338 323 320 310 289 234 219 201 194 192 186 185 173 168 168 156 124 165 176 196 225 177 172 188 162 179 197 233 213 225 224 236 244 241 241
255 244 248 266 270 285 304 309 329 335 347 337 323 315 303 230 239 186 187 192 179 182 182 177 170 155 162 157 138 182 182 197 191 187 210 208 231 240 256 249 245 256 246 243 251
255 247 247 253 262 268 279 296 306 313 324 343 332 323 305 263 209 202 208 209 187 181 188 184 191 171 126 123 166 140 182 232 213 197 224 227 254 242 259 255 232 239 242 244 252
248 245 246 249 258 262 261 278 286 303 302 311 330 326 296 260 219 207 205 200 200 187 183 183 168 170 146 116 123 111 278 276 213 198 235 218 273 234 240 260 245 234 239 240 250
249 242 241 242 248 250 262 269 283 289 295 299 302 316 272 257 230 202 192 193 189 185 180 173 164 145 121 125 58 56 44 309 139 153 200 158 264 256 260 240 241 238 238 239 246
263 248 236 242 249 256 255 259 268 276 289 290 291 295 268 244 227 212 206 196 171 168 162 165 160 110 121 100 36 16 231 225 313 194 134 185 274 269 280 225 244 245 243 239 244
266 279 239 236 239 243 249 251 264 271 274 275 258 281 235 223 204 196 183 176 159 151 132 159 129 93 53 108 213 194 214 243 255 182 184 229 264 273 264 262 251 251 246 239 240
249 269 275 236 241 237 238 254 277 262 229 226 193 187 195 203 185 182 174 165 149 157 147 129 136 204 196 189 115 127 176 232 222 159 212 239 265 271 264 252 250 250 244 240 238
246 242 259 261 241 226 230 210 230 258 296 246 245 242 227 192 179 190 174 185 162 159 125 66 234 187 120 155 136 130 154 242 294 150 178 329 281 266 235 232 234 239 240 238 233
248 232 248 255 218 216 225 217 225 308 252 251 236 232 229 224 219 200 184 184 146 128 181 163 186 132 135 152 161 199 193 212 218 179 196 315 283 293 285 247 250 242 244 242 232
263 228 241 258 217 209 218 213 213 238 335 250 208 220 196 187 232 207 193 180 154 181 165 223 194 130 147 181 142 222 203 162 143 66 237 28 286 297 282 283 245 241 230 231 221
252 218 230 228 176 187 191 188 179 183 359 265 159 174 162 175 145 175 179 181 166 171 138 227 169 161 162 193 163 234 124 141 115 118 13 263 233 269 352 282 257 225 227 221 213
233 241 235 225 215 181 175 171 159 86 238 168 121 144 124 110 98 108 147 139 128 106 29 214 260 160 149 77 140 144 77 52 57 87 322 226 178 267 221 227 293 281 218 206 199
243 225 232 219 217 200 192 155 148 186 296 247 177 149 98 147 107 121 146 147 156 126 189 25 242 195 129 86 50 40 117 354 345 350 222 144 146 257 269 233 227 277 213 191 185
234 227 235 234 215 211 179 179 192 233 205 151 105 91 168 150 187 127 134 184 221 102 105 161 257 188 193 155 174 202 185 173 204 202 223 113 229 248 232 236 230 241 212 181 178
260 250 254 231 227 223 172 203 213 191 160 133 74 103 215 230 143 127 182 202 194 169 191 173 246 334 340 116 136 190 213 155 103 28 47 209 277 289 238 236 176 201 182 181 179
281 278 259 250 220 213 204 230 221 182 132 129 180 152 176 190 156 173 176 200 193 183 184 205 197 95 72 29 99 216 203 129 10 184 241 261 273 239 281 259 205 199 205 193 184
333 239 267 204 197 201 209 227 224 218 178 167 204 140 188 178 177 191 200 253 192 179 134 150 147 358 162 188 174 177 234 237 218 185 191 194 256 216 246 236 224 215 207 198 190
172 355 233 177 192 229 225 199 348 334 185 294 188 146 172 165 169 207 203 233 173 146 181 172 171 164 211 56 24 110 273 212 172 222 236 192 267 228 238 270 314 255 212 207 200
198 214 246 186 215 235 316 343 272 338 276 1 290 206 168 170 177 203 191 270 164 161 162 158 206 141 172 163 133 197 214 238 279 87 215 175 247 15 301 337 355 288 206 203 203
167 207 255 203 268 130 209 245 268 344 242 50 301 338 146 184 354 166 190 27 162 190 169 161 182 204 202 145 116 172 191 211 218 235 243 229 299 297 3 1 348 4 214 208 206
183 209 199 182 268 220 250 202 96 217 171 291 219 236 238 190 154 173 134 109 45 111 153 142 223 204 220 144 113 171 194 212 213 235 239 257 250 254 279 286 339 346 225 214 213
174 165 184 203 236 23 224 196 228 287 193 217 262 267 233 230 214 186 134 182 176 110 161 178 240 152 270 199 196 238 214 200 225 237 256 257 261 255 281 300 283 248 244 228 222
220 219 216 217 172 136 219 195 221 194 251 233 260 307 288 253 258 258 235 212 179 173 183 182 171 138 244 21 137 261 226 221 230 208 206 233 252 258 259 252 266 263 247 248 243